Year,Month,Day,Hour,Minute,Value (Times are PST for barometer in hPa)
2016,03,06,00,00,985.73
2016,03,06,00,01,985.78
2016,03,06,00,02,985.81
2016,03,06,00,03,985.85
2016,03,06,00,04,985.81
2016,03,06,00,05,985.78
2016,03,06,00,06,985.71
2016,03,06,00,07,985.61
2016,03,06,00,08,985.57
2016,03,06,00,09,985.61
2016,03,06,00,10,985.56
2016,03,06,00,11,985.42
2016,03,06,00,12,985.64
2016,03,06,00,13,985.68
2016,03,06,00,14,985.68
2016,03,06,00,15,985.68
2016,03,06,00,16,985.64
2016,03,06,00,17,985.68
2016,03,06,00,18,985.74
2016,03,06,00,19,985.71
2016,03,06,00,20,985.61
2016,03,06,00,21,985.71
2016,03,06,00,22,985.75
2016,03,06,00,23,985.91
2016,03,06,00,24,985.88
2016,03,06,00,25,985.88
2016,03,06,00,26,985.81
2016,03,06,00,27,985.80
2016,03,06,00,28,985.70
2016,03,06,00,29,985.57
2016,03,06,00,30,985.54
2016,03,06,00,31,985.51
2016,03,06,00,32,985.44
2016,03,06,00,33,985.47
2016,03,06,00,34,985.50
2016,03,06,00,35,985.20
2016,03,06,00,36,985.18
2016,03,06,00,37,985.44
2016,03,06,00,38,985.44
2016,03,06,00,39,985.47
2016,03,06,00,40,985.41
2016,03,06,00,41,985.51
2016,03,06,00,42,985.57
2016,03,06,00,43,985.64
2016,03,06,00,44,985.74
2016,03,06,00,45,985.74
2016,03,06,00,46,985.68
2016,03,06,00,47,985.71
2016,03,06,00,48,985.79
2016,03,06,00,49,985.95
2016,03,06,00,50,986.02
2016,03,06,00,51,985.95
2016,03,06,00,52,986.02
2016,03,06,00,53,986.02
2016,03,06,00,54,986.01
2016,03,06,00,55,985.85
2016,03,06,00,56,985.81
2016,03,06,00,57,985.74
2016,03,06,00,58,985.68
2016,03,06,00,59,985.71
2016,03,06,01,00,985.61
2016,03,06,01,01,985.74
2016,03,06,01,02,985.78
2016,03,06,01,03,985.74
2016,03,06,01,04,985.74
2016,03,06,01,05,985.74
2016,03,06,01,06,985.71
2016,03,06,01,07,985.74
2016,03,06,01,08,985.71
2016,03,06,01,09,985.81
2016,03,06,01,10,986.02
2016,03,06,01,11,986.05
2016,03,06,01,12,986.02
2016,03,06,01,13,986.02
2016,03,06,01,14,985.98
2016,03,06,01,15,985.99
2016,03,06,01,16,986.15
2016,03,06,01,17,986.05
2016,03,06,01,18,986.09
2016,03,06,01,19,986.29
2016,03,06,01,20,986.39
2016,03,06,01,21,986.42
2016,03,06,01,22,986.60
2016,03,06,01,23,986.73
2016,03,06,01,24,986.76
2016,03,06,01,25,986.86
2016,03,06,01,26,986.96
2016,03,06,01,27,986.90
2016,03,06,01,28,986.96
2016,03,06,01,29,986.96
2016,03,06,01,30,986.96
2016,03,06,01,31,987.03
2016,03,06,01,32,986.96
2016,03,06,01,33,986.96
2016,03,06,01,34,986.96
2016,03,06,01,35,986.96
2016,03,06,01,36,987.03
2016,03,06,01,37,987.06
2016,03,06,01,38,987.06
2016,03,06,01,39,987.13
2016,03,06,01,40,987.28
2016,03,06,01,41,987.47
2016,03,06,01,42,987.48
2016,03,06,01,43,987.61
2016,03,06,01,44,987.67
2016,03,06,01,45,987.74
2016,03,06,01,46,987.81
2016,03,06,01,47,987.84
2016,03,06,01,48,987.83
2016,03,06,01,49,987.64
2016,03,06,01,50,987.60
2016,03,06,01,51,987.47
2016,03,06,01,52,987.67
2016,03,06,01,53,987.64
2016,03,06,01,54,987.67
2016,03,06,01,55,987.67
2016,03,06,01,56,987.78
2016,03,06,01,57,987.71
2016,03,06,01,58,987.73
2016,03,06,01,59,987.62
2016,03,06,02,00,987.74
2016,03,06,02,01,987.71
2016,03,06,02,02,987.67
2016,03,06,02,03,987.81
2016,03,06,02,04,987.88
2016,03,06,02,05,987.87
2016,03,06,02,06,987.74
2016,03,06,02,07,987.78
2016,03,06,02,08,987.78
2016,03,06,02,09,987.83
2016,03,06,02,10,987.68
2016,03,06,02,11,987.81
2016,03,06,02,12,987.64
2016,03,06,02,13,987.91
2016,03,06,02,14,987.94
2016,03,06,02,15,987.78
2016,03,06,02,16,987.78
2016,03,06,02,17,987.95
2016,03,06,02,18,987.88
2016,03,06,02,19,987.98
2016,03,06,02,20,987.95
2016,03,06,02,21,987.98
2016,03,06,02,22,987.98
2016,03,06,02,23,987.98
2016,03,06,02,24,987.88
2016,03,06,02,25,987.91
2016,03,06,02,26,987.84
2016,03,06,02,27,987.88
2016,03,06,02,28,987.87
2016,03,06,02,29,987.67
2016,03,06,02,30,987.61
2016,03,06,02,31,987.70
2016,03,06,02,32,987.54
2016,03,06,02,33,987.64
2016,03,06,02,34,987.68
2016,03,06,02,35,987.90
2016,03,06,02,36,987.78
2016,03,06,02,37,987.81
2016,03,06,02,38,987.78
2016,03,06,02,39,987.67
2016,03,06,02,40,987.74
2016,03,06,02,41,987.78
2016,03,06,02,42,987.81
2016,03,06,02,43,987.84
2016,03,06,02,44,987.74
2016,03,06,02,45,988.08
2016,03,06,02,46,988.01
2016,03,06,02,47,987.98
2016,03,06,02,48,988.01
2016,03,06,02,49,987.88
2016,03,06,02,50,987.92
2016,03,06,02,51,988.08
2016,03,06,02,52,988.15
2016,03,06,02,53,988.11
2016,03,06,02,54,988.11
2016,03,06,02,55,988.15
2016,03,06,02,56,988.22
2016,03,06,02,57,988.18
2016,03,06,02,58,988.22
2016,03,06,02,59,988.11
2016,03,06,03,00,988.28
2016,03,06,03,01,988.42
2016,03,06,03,02,988.49
2016,03,06,03,03,988.52
2016,03,06,03,04,988.45
2016,03,06,03,05,988.42
2016,03,06,03,06,988.49
2016,03,06,03,07,988.66
2016,03,06,03,08,988.73
2016,03,06,03,09,988.83
2016,03,06,03,10,988.83
2016,03,06,03,11,988.90
2016,03,06,03,12,989.03
2016,03,06,03,13,989.00
2016,03,06,03,14,989.00
2016,03,06,03,15,989.06
2016,03,06,03,16,989.13
2016,03,06,03,17,989.20
2016,03,06,03,18,989.27
2016,03,06,03,19,989.27
2016,03,06,03,20,989.14
2016,03,06,03,21,989.23
2016,03,06,03,22,989.30
2016,03,06,03,23,989.27
2016,03,06,03,24,989.33
2016,03,06,03,25,989.30
2016,03,06,03,26,989.47
2016,03,06,03,27,989.50
2016,03,06,03,28,989.49
2016,03,06,03,29,989.33
2016,03,06,03,30,989.40
2016,03,06,03,31,989.37
2016,03,06,03,32,989.45
2016,03,06,03,33,989.71
2016,03,06,03,34,989.71
2016,03,06,03,35,989.71
2016,03,06,03,36,989.88
2016,03,06,03,37,989.77
2016,03,06,03,38,989.84
2016,03,06,03,39,989.91
2016,03,06,03,40,989.98
2016,03,06,03,41,990.01
2016,03,06,03,42,990.04
2016,03,06,03,43,990.01
2016,03,06,03,44,990.01
2016,03,06,03,45,989.98
2016,03,06,03,46,989.91
2016,03,06,03,47,990.04
2016,03,06,03,48,990.11
2016,03,06,03,49,990.04
2016,03,06,03,50,990.04
2016,03,06,03,51,990.11
2016,03,06,03,52,990.11
2016,03,06,03,53,990.11
2016,03,06,03,54,990.18
2016,03,06,03,55,990.45
2016,03,06,03,56,990.49
2016,03,06,03,57,990.55
2016,03,06,03,58,990.69
2016,03,06,03,59,990.69
2016,03,06,04,00,990.46
2016,03,06,04,01,990.55
2016,03,06,04,02,990.59
2016,03,06,04,03,990.72
2016,03,06,04,04,990.69
2016,03,06,04,05,990.72
2016,03,06,04,06,990.80
2016,03,06,04,07,990.93
2016,03,06,04,08,990.93
2016,03,06,04,09,990.96
2016,03,06,04,10,991.06
2016,03,06,04,11,991.06
2016,03,06,04,12,991.06
2016,03,06,04,13,991.03
2016,03,06,04,14,991.09
2016,03,06,04,15,991.20
2016,03,06,04,16,991.23
2016,03,06,04,17,991.20
2016,03,06,04,18,991.20
2016,03,06,04,19,991.30
2016,03,06,04,20,991.26
2016,03,06,04,21,991.33
2016,03,06,04,22,991.37
2016,03,06,04,23,991.43
2016,03,06,04,24,991.43
2016,03,06,04,25,991.50
2016,03,06,04,26,991.50
2016,03,06,04,27,991.53
2016,03,06,04,28,991.60
2016,03,06,04,29,991.77
2016,03,06,04,30,991.81
2016,03,06,04,31,991.80
2016,03,06,04,32,991.70
2016,03,06,04,33,991.71
2016,03,06,04,34,991.81
2016,03,06,04,35,992.01
2016,03,06,04,36,992.04
2016,03,06,04,37,992.11
2016,03,06,04,38,992.15
2016,03,06,04,39,992.25
2016,03,06,04,40,992.28
2016,03,06,04,41,992.38
2016,03,06,04,42,992.31
2016,03,06,04,43,992.31
2016,03,06,04,44,992.28
2016,03,06,04,45,992.01
2016,03,06,04,46,992.01
2016,03,06,04,47,991.99
2016,03,06,04,48,992.11
2016,03,06,04,49,992.14
2016,03,06,04,50,992.22
2016,03,06,04,51,992.52
2016,03,06,04,52,992.65
2016,03,06,04,53,992.69
2016,03,06,04,54,992.59
2016,03,06,04,55,992.72
2016,03,06,04,56,992.65
2016,03,06,04,57,992.72
2016,03,06,04,58,992.75
2016,03,06,04,59,992.86
2016,03,06,05,00,992.82
2016,03,06,05,01,992.87
2016,03,06,05,02,992.99
2016,03,06,05,03,993.13
2016,03,06,05,04,993.13
2016,03,06,05,05,993.19
2016,03,06,05,06,993.16
2016,03,06,05,07,993.23
2016,03,06,05,08,993.23
2016,03,06,05,09,993.19
2016,03,06,05,10,993.22
2016,03,06,05,11,993.13
2016,03,06,05,12,993.26
2016,03,06,05,13,993.30
2016,03,06,05,14,993.27
2016,03,06,05,15,993.50
2016,03,06,05,16,993.47
2016,03,06,05,17,993.47
2016,03,06,05,18,993.43
2016,03,06,05,19,993.53
2016,03,06,05,20,993.50
2016,03,06,05,21,993.43
2016,03,06,05,22,993.43
2016,03,06,05,23,993.53
2016,03,06,05,24,993.47
2016,03,06,05,25,993.50
2016,03,06,05,26,993.40
2016,03,06,05,27,993.43
2016,03,06,05,28,993.53
2016,03,06,05,29,993.50
2016,03,06,05,30,993.57
2016,03,06,05,31,993.63
2016,03,06,05,32,993.63
2016,03,06,05,33,993.63
2016,03,06,05,34,993.64
2016,03,06,05,35,993.80
2016,03,06,05,36,993.91
2016,03,06,05,37,993.97
2016,03,06,05,38,993.70
2016,03,06,05,39,993.77
2016,03,06,05,40,993.77
2016,03,06,05,41,993.80
2016,03,06,05,42,994.04
2016,03,06,05,43,994.18
2016,03,06,05,44,993.87
2016,03,06,05,45,994.01
2016,03,06,05,46,994.04
2016,03,06,05,47,994.04
2016,03,06,05,48,994.04
2016,03,06,05,49,993.88
2016,03,06,05,50,994.01
2016,03,06,05,51,994.01
2016,03,06,05,52,994.07
2016,03,06,05,53,994.04
2016,03,06,05,54,994.07
2016,03,06,05,55,994.11
2016,03,06,05,56,994.11
2016,03,06,05,57,994.14
2016,03,06,05,58,994.14
2016,03,06,05,59,994.14
2016,03,06,06,00,994.21
2016,03,06,06,01,994.24
2016,03,06,06,02,994.11
2016,03,06,06,03,994.05
2016,03,06,06,04,994.18
2016,03,06,06,05,994.14
2016,03,06,06,06,994.37
2016,03,06,06,07,994.15
2016,03,06,06,08,994.35
2016,03,06,06,09,994.31
2016,03,06,06,10,994.35
2016,03,06,06,11,994.38
2016,03,06,06,12,994.35
2016,03,06,06,13,994.31
2016,03,06,06,14,994.21
2016,03,06,06,15,994.24
2016,03,06,06,16,994.24
2016,03,06,06,17,994.21
2016,03,06,06,18,994.14
2016,03,06,06,19,994.17
2016,03,06,06,20,993.94
2016,03,06,06,21,993.94
2016,03,06,06,22,993.85
2016,03,06,06,23,994.04
2016,03,06,06,24,993.97
2016,03,06,06,25,993.91
2016,03,06,06,26,993.97
2016,03,06,06,27,994.01
2016,03,06,06,28,994.07
2016,03,06,06,29,994.14
2016,03,06,06,30,994.11
2016,03,06,06,31,994.21
2016,03,06,06,32,994.19
2016,03,06,06,33,994.31
2016,03,06,06,34,994.35
2016,03,06,06,35,994.41
2016,03,06,06,36,994.38
2016,03,06,06,37,994.38
2016,03,06,06,38,994.41
2016,03,06,06,39,994.45
2016,03,06,06,40,994.41
2016,03,06,06,41,994.41
2016,03,06,06,42,994.38
2016,03,06,06,43,994.41
2016,03,06,06,44,994.38
2016,03,06,06,45,994.38
2016,03,06,06,46,994.41
2016,03,06,06,47,994.35
2016,03,06,06,48,994.35
2016,03,06,06,49,994.38
2016,03,06,06,50,994.41
2016,03,06,06,51,994.35
2016,03,06,06,52,994.41
2016,03,06,06,53,994.38
2016,03,06,06,54,994.32
2016,03,06,06,55,994.41
2016,03,06,06,56,994.41
2016,03,06,06,57,994.45
2016,03,06,06,58,994.55
2016,03,06,06,59,994.52
2016,03,06,07,00,994.52
2016,03,06,07,01,994.58
2016,03,06,07,02,994.48
2016,03,06,07,03,994.55
2016,03,06,07,04,994.62
2016,03,06,07,05,994.55
2016,03,06,07,06,994.68
2016,03,06,07,07,994.65
2016,03,06,07,08,994.74
2016,03,06,07,09,994.62
2016,03,06,07,10,994.62
2016,03,06,07,11,994.68
2016,03,06,07,12,994.65
2016,03,06,07,13,994.68
2016,03,06,07,14,994.65
2016,03,06,07,15,994.75
2016,03,06,07,16,994.72
2016,03,06,07,17,994.62
2016,03,06,07,18,994.52
2016,03,06,07,19,994.71
2016,03,06,07,20,994.41
2016,03,06,07,21,994.38
2016,03,06,07,22,994.52
2016,03,06,07,23,994.55
2016,03,06,07,24,994.68
2016,03,06,07,25,994.72
2016,03,06,07,26,994.68
2016,03,06,07,27,994.68
2016,03,06,07,28,994.79
2016,03,06,07,29,994.82
2016,03,06,07,30,994.89
2016,03,06,07,31,995.02
2016,03,06,07,32,995.06
2016,03,06,07,33,995.16
2016,03,06,07,34,995.09
2016,03,06,07,35,995.16
2016,03,06,07,36,995.26
2016,03,06,07,37,995.19
2016,03,06,07,38,995.33
2016,03,06,07,39,995.36
2016,03,06,07,40,995.36
2016,03,06,07,41,995.35
2016,03,06,07,42,995.09
2016,03,06,07,43,995.19
2016,03,06,07,44,995.12
2016,03,06,07,45,995.09
2016,03,06,07,46,995.11
2016,03,06,07,47,994.99
2016,03,06,07,48,994.96
2016,03,06,07,49,995.16
2016,03,06,07,50,995.16
2016,03,06,07,51,995.19
2016,03,06,07,52,995.26
2016,03,06,07,53,995.26
2016,03,06,07,54,995.16
2016,03,06,07,55,995.19
2016,03,06,07,56,995.26
2016,03,06,07,57,995.29
2016,03,06,07,58,995.40
2016,03,06,07,59,995.53
2016,03,06,08,00,995.56
2016,03,06,08,01,995.67
2016,03,06,08,02,995.46
2016,03,06,08,03,995.50
2016,03,06,08,04,995.63
2016,03,06,08,05,995.43
2016,03,06,08,06,995.50
2016,03,06,08,07,995.52
2016,03,06,08,08,995.29
2016,03,06,08,09,995.36
2016,03,06,08,10,995.53
2016,03,06,08,11,995.53
2016,03,06,08,12,995.63
2016,03,06,08,13,995.50
2016,03,06,08,14,995.70
2016,03,06,08,15,995.67
2016,03,06,08,16,995.70
2016,03,06,08,17,995.73
2016,03,06,08,18,995.77
2016,03,06,08,19,995.84
2016,03,06,08,20,995.84
2016,03,06,08,21,995.84
2016,03,06,08,22,995.83
2016,03,06,08,23,995.70
2016,03,06,08,24,995.77
2016,03,06,08,25,995.80
2016,03,06,08,26,995.73
2016,03,06,08,27,995.76
2016,03,06,08,28,995.63
2016,03,06,08,29,995.60
2016,03,06,08,30,995.63
2016,03,06,08,31,995.67
2016,03,06,08,32,995.84
2016,03,06,08,33,995.77
2016,03,06,08,34,995.70
2016,03,06,08,35,995.73
2016,03,06,08,36,995.56
2016,03,06,08,37,995.54
2016,03,06,08,38,995.70
2016,03,06,08,39,995.70
2016,03,06,08,40,995.67
2016,03,06,08,41,995.70
2016,03,06,08,42,995.70
2016,03,06,08,43,995.77
2016,03,06,08,44,995.87
2016,03,06,08,45,995.87
2016,03,06,08,46,995.83
2016,03,06,08,47,995.67
2016,03,06,08,48,995.74
2016,03,06,08,49,995.90
2016,03,06,08,50,995.90
2016,03,06,08,51,995.97
2016,03,06,08,52,995.90
2016,03,06,08,53,995.80
2016,03,06,08,54,995.80
2016,03,06,08,55,995.80
2016,03,06,08,56,995.71
2016,03,06,08,57,995.80
2016,03,06,08,58,995.84
2016,03,06,08,59,996.07
2016,03,06,09,00,995.97
2016,03,06,09,01,995.87
2016,03,06,09,02,996.07
2016,03,06,09,03,996.11
2016,03,06,09,04,996.11
2016,03,06,09,05,996.21
2016,03,06,09,06,996.14
2016,03,06,09,07,996.07
2016,03,06,09,08,996.14
2016,03,06,09,09,996.11
2016,03,06,09,10,996.14
2016,03,06,09,11,996.17
2016,03,06,09,12,996.28
2016,03,06,09,13,996.34
2016,03,06,09,14,996.31
2016,03,06,09,15,996.34
2016,03,06,09,16,996.38
2016,03,06,09,17,996.31
2016,03,06,09,18,996.28
2016,03,06,09,19,996.21
2016,03,06,09,20,996.41
2016,03,06,09,21,996.38
2016,03,06,09,22,996.41
2016,03,06,09,23,996.41
2016,03,06,09,24,996.41
2016,03,06,09,25,996.45
2016,03,06,09,26,996.38
2016,03,06,09,27,996.45
2016,03,06,09,28,996.48
2016,03,06,09,29,996.41
2016,03,06,09,30,996.41
2016,03,06,09,31,996.38
2016,03,06,09,32,996.41
2016,03,06,09,33,996.28
2016,03,06,09,34,996.31
2016,03,06,09,35,996.45
2016,03,06,09,36,996.45
2016,03,06,09,37,996.41
2016,03,06,09,38,996.41
2016,03,06,09,39,996.41
2016,03,06,09,40,996.38
2016,03,06,09,41,996.38
2016,03,06,09,42,996.48
2016,03,06,09,43,996.51
2016,03,06,09,44,996.58
2016,03,06,09,45,996.65
2016,03,06,09,46,996.58
2016,03,06,09,47,996.58
2016,03,06,09,48,996.61
2016,03,06,09,49,996.68
2016,03,06,09,50,996.68
2016,03,06,09,51,996.72
2016,03,06,09,52,996.61
2016,03,06,09,53,996.72
2016,03,06,09,54,996.72
2016,03,06,09,55,996.75
2016,03,06,09,56,996.82
2016,03,06,09,57,996.78
2016,03,06,09,58,996.82
2016,03,06,09,59,996.85
2016,03,06,10,00,996.89
2016,03,06,10,01,996.89
2016,03,06,10,02,996.95
2016,03,06,10,03,996.89
2016,03,06,10,04,996.75
2016,03,06,10,05,996.72
2016,03,06,10,06,996.72
2016,03,06,10,07,996.99
2016,03,06,10,08,996.99
2016,03,06,10,09,996.95
2016,03,06,10,10,996.92
2016,03,06,10,11,996.95
2016,03,06,10,12,996.92
2016,03,06,10,13,996.85
2016,03,06,10,14,996.89
2016,03,06,10,15,996.82
2016,03,06,10,16,996.75
2016,03,06,10,17,996.72
2016,03,06,10,18,996.95
2016,03,06,10,19,996.85
2016,03,06,10,20,996.89
2016,03,06,10,21,996.92
2016,03,06,10,22,996.89
2016,03,06,10,23,996.99
2016,03,06,10,24,996.85
2016,03,06,10,25,996.85
2016,03,06,10,26,996.85
2016,03,06,10,27,996.85
2016,03,06,10,28,997.09
2016,03,06,10,29,997.16
2016,03,06,10,30,997.16
2016,03,06,10,31,997.19
2016,03,06,10,32,997.22
2016,03,06,10,33,997.22
2016,03,06,10,34,997.26
2016,03,06,10,35,997.22
2016,03,06,10,36,997.29
2016,03,06,10,37,997.39
2016,03,06,10,38,997.29
2016,03,06,10,39,997.39
2016,03,06,10,40,997.39
2016,03,06,10,41,997.39
2016,03,06,10,42,997.39
2016,03,06,10,43,997.43
2016,03,06,10,44,997.39
2016,03,06,10,45,997.36
2016,03,06,10,46,997.60
2016,03,06,10,47,997.66
2016,03,06,10,48,997.73
2016,03,06,10,49,997.77
2016,03,06,10,50,997.80
2016,03,06,10,51,997.90
2016,03,06,10,52,998.00
2016,03,06,10,53,998.00
2016,03,06,10,54,998.04
2016,03,06,10,55,998.04
2016,03,06,10,56,998.06
2016,03,06,10,57,997.90
2016,03,06,10,58,998.17
2016,03,06,10,59,998.14
2016,03,06,11,00,998.00
2016,03,06,11,01,997.95
2016,03,06,11,02,998.00
2016,03,06,11,03,998.04
2016,03,06,11,04,998.00
2016,03,06,11,05,998.10
2016,03,06,11,06,998.10
2016,03,06,11,07,998.14
2016,03,06,11,08,998.21
2016,03,06,11,09,998.24
2016,03,06,11,10,998.41
2016,03,06,11,11,998.34
2016,03,06,11,12,998.34
2016,03,06,11,13,998.40
2016,03,06,11,14,998.24
2016,03,06,11,15,998.31
2016,03,06,11,16,998.27
2016,03,06,11,17,998.31
2016,03,06,11,18,998.24
2016,03,06,11,19,998.34
2016,03,06,11,20,998.30
2016,03,06,11,21,998.04
2016,03,06,11,22,998.21
2016,03,06,11,23,998.08
2016,03,06,11,24,998.07
2016,03,06,11,25,998.10
2016,03,06,11,26,998.04
2016,03,06,11,27,998.17
2016,03,06,11,28,998.14
2016,03,06,11,29,998.21
2016,03,06,11,30,998.27
2016,03,06,11,31,998.24
2016,03,06,11,32,998.24
2016,03,06,11,33,998.31
2016,03,06,11,34,998.21
2016,03,06,11,35,998.27
2016,03,06,11,36,998.27
2016,03,06,11,37,998.10
2016,03,06,11,38,998.17
2016,03,06,11,39,998.21
2016,03,06,11,40,998.24
2016,03,06,11,41,998.21
2016,03,06,11,42,998.21
2016,03,06,11,43,998.21
2016,03,06,11,44,998.21
2016,03,06,11,45,998.27
2016,03,06,11,46,998.24
2016,03,06,11,47,998.24
2016,03,06,11,48,998.17
2016,03,06,11,49,998.21
2016,03,06,11,50,998.21
2016,03,06,11,51,998.24
2016,03,06,11,52,998.27
2016,03,06,11,53,998.24
2016,03,06,11,54,998.27
2016,03,06,11,55,998.34
2016,03,06,11,56,998.27
2016,03,06,11,57,998.27
2016,03,06,11,58,998.31
2016,03,06,11,59,998.31
2016,03,06,12,00,998.24
2016,03,06,12,01,998.31
2016,03,06,12,02,998.31
2016,03,06,12,03,998.27
2016,03,06,12,04,998.27
2016,03,06,12,05,998.27
2016,03,06,12,06,998.24
2016,03,06,12,07,998.24
2016,03,06,12,08,998.24
2016,03,06,12,09,998.31
2016,03,06,12,10,998.27
2016,03,06,12,11,998.31
2016,03,06,12,12,998.41
2016,03,06,12,13,998.34
2016,03,06,12,14,998.41
2016,03,06,12,15,998.28
2016,03,06,12,16,998.44
2016,03,06,12,17,998.48
2016,03,06,12,18,998.44
2016,03,06,12,19,998.51
2016,03,06,12,20,998.54
2016,03,06,12,21,998.51
2016,03,06,12,22,998.68
2016,03,06,12,23,998.65
2016,03,06,12,24,998.54
2016,03,06,12,25,998.48
2016,03,06,12,26,998.48
2016,03,06,12,27,998.44
2016,03,06,12,28,998.54
2016,03,06,12,29,998.67
2016,03,06,12,30,998.65
2016,03,06,12,31,998.65
2016,03,06,12,32,998.75
2016,03,06,12,33,998.71
2016,03,06,12,34,998.78
2016,03,06,12,35,998.68
2016,03,06,12,36,998.71
2016,03,06,12,37,998.78
2016,03,06,12,38,998.75
2016,03,06,12,39,998.68
2016,03,06,12,40,998.68
2016,03,06,12,41,998.71
2016,03,06,12,42,998.65
2016,03,06,12,43,998.71
2016,03,06,12,44,998.75
2016,03,06,12,45,998.65
2016,03,06,12,46,998.61
2016,03,06,12,47,998.58
2016,03,06,12,48,998.54
2016,03,06,12,49,998.54
2016,03,06,12,50,998.61
2016,03,06,12,51,998.61
2016,03,06,12,52,998.65
2016,03,06,12,53,998.68
2016,03,06,12,54,998.78
2016,03,06,12,55,998.92
2016,03,06,12,56,998.88
2016,03,06,12,57,998.85
2016,03,06,12,58,998.85
2016,03,06,12,59,998.85
2016,03,06,13,00,998.92
2016,03,06,13,01,999.02
2016,03,06,13,02,998.95
2016,03,06,13,03,998.99
2016,03,06,13,04,998.99
2016,03,06,13,05,999.02
2016,03,06,13,06,998.95
2016,03,06,13,07,998.92
2016,03,06,13,08,998.92
2016,03,06,13,09,998.88
2016,03,06,13,10,998.71
2016,03,06,13,11,998.78
2016,03,06,13,12,998.85
2016,03,06,13,13,998.54
2016,03,06,13,14,998.58
2016,03,06,13,15,998.78
2016,03,06,13,16,998.88
2016,03,06,13,17,998.88
2016,03,06,13,18,998.85
2016,03,06,13,19,998.85
2016,03,06,13,20,998.85
2016,03,06,13,21,998.85
2016,03,06,13,22,998.88
2016,03,06,13,23,998.82
2016,03,06,13,24,998.85
2016,03,06,13,25,998.78
2016,03,06,13,26,998.82
2016,03,06,13,27,998.85
2016,03,06,13,28,998.87
2016,03,06,13,29,998.68
2016,03,06,13,30,998.68
2016,03,06,13,31,998.61
2016,03,06,13,32,998.68
2016,03,06,13,33,998.68
2016,03,06,13,34,998.65
2016,03,06,13,35,998.61
2016,03,06,13,36,998.58
2016,03,06,13,37,998.65
2016,03,06,13,38,998.84
2016,03,06,13,39,998.71
2016,03,06,13,40,998.78
2016,03,06,13,41,998.61
2016,03,06,13,42,998.51
2016,03,06,13,43,998.71
2016,03,06,13,44,998.61
2016,03,06,13,45,998.82
2016,03,06,13,46,998.78
2016,03,06,13,47,998.85
2016,03,06,13,48,998.78
2016,03,06,13,49,998.82
2016,03,06,13,50,998.75
2016,03,06,13,51,998.61
2016,03,06,13,52,998.65
2016,03,06,13,53,998.61
2016,03,06,13,54,998.71
2016,03,06,13,55,998.71
2016,03,06,13,56,998.78
2016,03,06,13,57,998.81
2016,03,06,13,58,998.58
2016,03,06,13,59,998.82
2016,03,06,14,00,998.75
2016,03,06,14,01,998.71
2016,03,06,14,02,998.78
2016,03,06,14,03,998.82
2016,03,06,14,04,998.82
2016,03,06,14,05,998.75
2016,03,06,14,06,998.75
2016,03,06,14,07,998.85
2016,03,06,14,08,998.85
2016,03,06,14,09,998.78
2016,03,06,14,10,998.79
2016,03,06,14,11,998.92
2016,03,06,14,12,998.85
2016,03,06,14,13,998.88
2016,03,06,14,14,998.88
2016,03,06,14,15,998.82
2016,03,06,14,16,998.78
2016,03,06,14,17,998.82
2016,03,06,14,18,998.78
2016,03,06,14,19,998.75
2016,03,06,14,20,998.85
2016,03,06,14,21,998.71
2016,03,06,14,22,998.82
2016,03,06,14,23,998.75
2016,03,06,14,24,998.75
2016,03,06,14,25,998.75
2016,03,06,14,26,998.88
2016,03,06,14,27,998.88
2016,03,06,14,28,998.75
2016,03,06,14,29,998.78
2016,03,06,14,30,999.09
2016,03,06,14,31,999.09
2016,03,06,14,32,999.12
2016,03,06,14,33,999.09
2016,03,06,14,34,998.95
2016,03,06,14,35,998.99
2016,03,06,14,36,999.02
2016,03,06,14,37,998.92
2016,03,06,14,38,998.95
2016,03,06,14,39,998.92
2016,03,06,14,40,999.15
2016,03,06,14,41,999.12
2016,03,06,14,42,998.80
2016,03,06,14,43,998.95
2016,03,06,14,44,998.99
2016,03,06,14,45,998.88
2016,03,06,14,46,998.98
2016,03,06,14,47,999.09
2016,03,06,14,48,999.09
2016,03,06,14,49,999.05
2016,03,06,14,50,999.12
2016,03,06,14,51,999.05
2016,03,06,14,52,999.05
2016,03,06,14,53,999.20
2016,03,06,14,54,999.29
2016,03,06,14,55,999.26
2016,03,06,14,56,999.32
2016,03,06,14,57,999.29
2016,03,06,14,58,999.32
2016,03,06,14,59,999.28
2016,03,06,15,00,999.12
2016,03,06,15,01,999.05
2016,03,06,15,02,999.15
2016,03,06,15,03,999.19
2016,03,06,15,04,999.29
2016,03,06,15,05,999.20
2016,03,06,15,06,999.12
2016,03,06,15,07,999.12
2016,03,06,15,08,999.26
2016,03,06,15,09,999.26
2016,03,06,15,10,999.15
2016,03,06,15,11,999.05
2016,03,06,15,12,999.09
2016,03,06,15,13,999.26
2016,03,06,15,14,999.26
2016,03,06,15,15,999.32
2016,03,06,15,16,999.29
2016,03,06,15,17,999.29
2016,03,06,15,18,999.39
2016,03,06,15,19,999.39
2016,03,06,15,20,999.27
2016,03,06,15,21,999.29
2016,03,06,15,22,999.36
2016,03,06,15,23,999.30
2016,03,06,15,24,999.43
2016,03,06,15,25,999.32
2016,03,06,15,26,999.26
2016,03,06,15,27,999.29
2016,03,06,15,28,999.26
2016,03,06,15,29,999.32
2016,03,06,15,30,999.15
2016,03,06,15,31,999.26
2016,03,06,15,32,999.26
2016,03,06,15,33,999.22
2016,03,06,15,34,999.29
2016,03,06,15,35,999.22
2016,03,06,15,36,999.29
2016,03,06,15,37,999.26
2016,03,06,15,38,999.26
2016,03,06,15,39,999.29
2016,03,06,15,40,999.26
2016,03,06,15,41,999.32
2016,03,06,15,42,999.36
2016,03,06,15,43,999.29
2016,03,06,15,44,999.36
2016,03,06,15,45,999.43
2016,03,06,15,46,999.43
2016,03,06,15,47,999.36
2016,03,06,15,48,999.10
2016,03,06,15,49,999.15
2016,03,06,15,50,999.12
2016,03,06,15,51,999.15
2016,03,06,15,52,999.39
2016,03,06,15,53,999.46
2016,03,06,15,54,999.36
2016,03,06,15,55,999.36
2016,03,06,15,56,999.32
2016,03,06,15,57,999.32
2016,03,06,15,58,999.26
2016,03,06,15,59,999.46
2016,03,06,16,00,999.39
2016,03,06,16,01,999.43
2016,03,06,16,02,999.43
2016,03,06,16,03,999.43
2016,03,06,16,04,999.49
2016,03,06,16,05,999.46
2016,03,06,16,06,999.46
2016,03,06,16,07,999.56
2016,03,06,16,08,999.56
2016,03,06,16,09,999.49
2016,03,06,16,10,999.56
2016,03,06,16,11,999.53
2016,03,06,16,12,999.46
2016,03,06,16,13,999.49
2016,03,06,16,14,999.46
2016,03,06,16,15,999.53
2016,03,06,16,16,999.36
2016,03,06,16,17,999.52
2016,03,06,16,18,999.49
2016,03,06,16,19,999.43
2016,03,06,16,20,999.43
2016,03,06,16,21,999.43
2016,03,06,16,22,999.39
2016,03,06,16,23,999.39
2016,03,06,16,24,999.39
2016,03,06,16,25,999.53
2016,03,06,16,26,999.59
2016,03,06,16,27,999.56
2016,03,06,16,28,999.59
2016,03,06,16,29,999.63
2016,03,06,16,30,999.49
2016,03,06,16,31,999.56
2016,03,06,16,32,999.53
2016,03,06,16,33,999.29
2016,03,06,16,34,999.32
2016,03,06,16,35,999.29
2016,03,06,16,36,999.43